User: anonymous   Login
Location: Arrodets-la-Barthe
(43.0306°N, 0.2829°E)
Time: 14:39:03
(UTC+00:00)
Language:

COSMOS 2428 - Orbit

View from above orbital plane
View from above orbital plane
View from above satellite
View from above satellite

Ground track
Ground track

The orbit data is extracted from the following two-line orbital elements,

1 31792U 07029A   22019.56117053  .00000311  00000-0  19428-3 0  9994
2 31792  70.9288 132.1523 0010734 273.3001  86.6891 14.12443787750906
Epoch (UTC): 19 January 2022 13:28:05
Eccentricity: 0.0010734
inclination: 70.9288°
perigee height: 843 km
apogee height: 859 km
right ascension of ascending node: 132.1523°
argument of perigee: 273.3001°
revolutions per day: 14.12443787
mean anomaly at epoch: 86.6891°
orbit number at epoch: 75090

The dashed part of the orbit path shows where the satellite is in the earth's shadow,  

DLR